TimeHST,TemperatureF,Dew PointF,Humidity,Sea Level PressureIn,VisibilityMPH,Wind Direction,Wind SpeedMPH,Gust SpeedMPH,PrecipitationIn,Events,Conditions,WindDirDegrees,DateUTC
12:54 AM,69.1,64.9,87,30.12,10.0,ENE,11.5,-,N/A,,Mostly Cloudy,60,2013-02-20 10:54:00
1:54 AM,69.1,64.9,87,30.10,10.0,NE,13.8,23.0,0.00,,Mostly Cloudy,50,2013-02-20 11:54:00
2:54 AM,68.0,64.9,90,30.09,10.0,NE,13.8,-,0.00,Rain,Light Rain,50,2013-02-20 12:54:00
3:54 AM,68.0,64.9,90,30.09,10.0,NE,11.5,-,0.00,,Mostly Cloudy,50,2013-02-20 13:54:00
4:54 AM,69.1,64.9,87,30.09,10.0,NE,16.1,21.9,N/A,,Partly Cloudy,50,2013-02-20 14:54:00
5:54 AM,68.0,64.9,90,30.11,10.0,NE,12.7,-,0.00,Rain,Light Rain,40,2013-02-20 15:54:00
6:54 AM,69.1,66.0,90,30.13,10.0,NE,11.5,-,0.01,,Scattered Clouds,50,2013-02-20 16:54:00
7:54 AM,72.0,66.9,84,30.15,10.0,NE,15.0,-,0.00,,Scattered Clouds,40,2013-02-20 17:54:00
8:54 AM,73.9,66.9,79,30.17,10.0,NE,17.3,24.2,N/A,,Scattered Clouds,50,2013-02-20 18:54:00
9:54 AM,73.9,66.0,76,30.18,10.0,ENE,18.4,27.6,N/A,,Scattered Clouds,70,2013-02-20 19:54:00
10:54 AM,77.0,66.0,69,30.18,10.0,ENE,19.6,27.6,0.00,,Scattered Clouds,70,2013-02-20 20:54:00
11:54 AM,75.9,64.0,67,30.17,10.0,ENE,21.9,28.8,N/A,,Scattered Clouds,60,2013-02-20 21:54:00
12:54 PM,78.1,62.1,58,30.15,10.0,ENE,21.9,28.8,N/A,,Scattered Clouds,60,2013-02-20 22:54:00
1:54 PM,78.1,62.1,58,30.14,10.0,ENE,17.3,31.1,N/A,,Scattered Clouds,70,2013-02-20 23:54:00
2:54 PM,77.0,63.0,62,30.13,10.0,ENE,17.3,27.6,N/A,,Scattered Clouds,60,2013-02-21 00:54:00
3:54 PM,77.0,63.0,62,30.13,10.0,NE,20.7,29.9,N/A,,Scattered Clouds,50,2013-02-21 01:54:00
4:54 PM,75.9,63.0,64,30.13,10.0,NE,18.4,24.2,N/A,,Partly Cloudy,40,2013-02-21 02:54:00
5:54 PM,73.0,63.0,71,30.14,10.0,NE,18.4,24.2,N/A,,Scattered Clouds,50,2013-02-21 03:54:00
6:54 PM,72.0,63.0,73,30.15,10.0,NE,12.7,-,N/A,,Partly Cloudy,40,2013-02-21 04:54:00
10:54 PM,71.1,64.9,81,30.17,10.0,NE,16.1,24.2,N/A,,Partly Cloudy,50,2013-02-21 08:54:00
11:54 PM,70.0,64.9,84,30.15,10.0,NE,15.0,-,N/A,,Scattered Clouds,50,2013-02-21 09:54:00